RH
20 20 18 15 14 12 12 10 10 13 15 18 23 28 31 31 31 34 41 45 47 50 50 49 53 56 56 55 57 59 58 57 61 62 63 64 64 66 65 62 60 60 57 54 52 52 50 47 44 41 40 39 37 36 35 35 35 34 33 29 24 22 21 19 20 21 20 19 19 18 18 20 23 25 27 28 28 29 31 33 35 36 37 36 36 37
20 19 17 14 13 13 12 11 10 9 13 19 23 27 31 32 30 31 37 43 46 47 48 48 50 53 54 53 55 57 55 53 56 61 63 64 64 64 66 65 63 62 59 55 52 51 51 50 47 43 41 40 38 37 37 35 35 35 34 31 26 23 21 19 19 20 20 20 19 19 18 19 21 23 25 26 28 30 32 33 34 35 35 34 34 35
21 19 16 15 14 13 12 12 11 9 11 18 23 25 29 31 30 30 32 39 46 46 46 48 48 49 51 52 53 54 53 52 54 60 63 65 65 64 64 66 65 62 58 53 49 49 50 50 49 45 44 43 41 39 38 37 36 35 35 33 28 25 21 19 19 19 20 20 20 19 19 20 21 22 24 25 27 30 32 33 34 35 34 33 34 34
20 18 17 17 15 14 14 12 12 10 9 14 21 25 27 28 30 32 32 37 44 46 46 48 47 46 49 51 51 51 52 51 53 59 63 65 66 65 64 66 65 62 57 51 47 47 48 48 48 47 47 46 43 40 39 38 35 34 34 33 31 27 23 21 19 19 19 20 20 20 19 20 21 22 23 23 25 28 31 32 33 34 33 33 34 33
18 18 19 19 18 17 15 14 13 12 11 11 15 22 25 25 28 31 33 35 40 43 45 47 47 45 46 48 47 48 50 50 51 56 60 62 64 63 63 65 65 62 58 51 46 47 47 47 47 46 47 46 42 39 38 38 36 34 34 35 33 29 25 22 20 19 19 19 19 18 19 20 21 22 23 23 24 24 27 29 31 32 32 32 33 33
19 19 20 21 21 19 16 15 13 13 15 13 11 15 21 24 26 29 32 35 38 41 41 45 47 44 43 44 43 45 49 48 49 53 57 60 61 59 59 62 62 60 58 53 49 47 47 47 47 46 46 44 40 37 37 38 37 36 35 36 34 31 27 24 22 21 20 19 19 18 18 20 20 21 22 23 22 22 23 26 28 30 31 31 32 32
18 18 19 22 24 22 19 17 14 13 16 16 9 9 16 21 25 27 30 35 39 39 37 39 43 43 41 41 41 42 45 45 46 51 56 59 59 57 57 60 61 59 58 56 53 49 47 47 46 45 43 40 38 37 37 38 39 37 36 37 36 33 29 26 24 23 21 20 19 18 18 20 20 21 21 21 22 22 22 25 27 28 30 30 31 31
19 18 19 22 25 25 23 18 16 13 14 15 11 8 12 17 23 25 27 32 35 37 37 35 36 38 38 38 39 40 41 43 45 50 54 55 56 55 55 58 59 58 58 57 55 51 48 46 44 42 38 36 38 38 38 38 38 37 35 36 36 34 30 28 26 24 23 21 19 19 19 20 21 21 20 21 23 23 23 24 26 27 29 30 30 30
21 20 20 21 24 26 24 20 17 15 13 14 13 11 10 12 18 23 26 29 31 36 39 37 35 36 35 34 37 38 39 40 43 48 51 52 53 54 54 57 58 58 58 57 55 52 49 46 43 40 37 36 38 37 36 36 37 37 35 35 36 34 30 28 27 25 24 22 21 19 20 20 21 21 21 22 23 24 24 24 25 26 28 30 30 29
23 22 22 23 23 23 24 23 20 17 15 13 15 15 13 12 16 20 24 26 30 36 38 38 38 37 34 32 34 37 37 37 41 46 50 51 52 53 55 56 56 57 58 56 55 54 52 48 44 42 41 39 37 36 35 36 37 38 36 35 36 34 31 28 27 26 26 24 22 20 20 20 21 21 22 22 23 24 24 24 25 25 27 28 29 29
23 24 24 25 24 22 23 25 23 19 17 14 15 18 18 17 17 19 22 24 30 36 34 34 36 37 34 31 31 34 33 35 40 45 48 49 51 53 55 55 54 55 56 56 57 56 55 52 49 46 43 40 38 37 36 35 36 37 36 34 34 35 33 30 28 27 26 25 23 21 20 20 21 22 22 22 22 22 23 24 24 24 25 26 28 28
23 24 25 26 27 25 23 26 26 23 20 17 17 19 23 23 22 22 23 24 29 31 28 27 32 35 34 30 28 28 30 34 39 43 46 48 50 53 54 54 52 53 55 58 59 59 58 56 52 48 45 41 39 37 36 34 35 36 36 34 33 34 34 32 31 29 28 26 24 23 21 20 21 22 23 22 21 21 21 22 23 24 24 25 26 26
25 23 25 28 30 29 27 27 29 28 24 21 20 21 23 26 28 28 26 25 26 26 23 23 27 31 30 28 27 26 28 33 37 40 44 47 49 52 53 53 53 53 54 57 59 60 60 58 55 51 48 43 40 37 34 33 34 35 35 33 32 32 32 32 32 31 29 27 24 23 22 21 21 22 23 22 21 21 21 22 22 23 23 24 25 25
28 24 24 30 34 32 30 29 31 32 29 24 22 23 23 25 30 31 29 26 25 24 21 19 23 27 25 25 25 23 25 31 36 40 43 46 48 51 52 52 53 53 54 55 57 58 59 59 56 53 51 46 41 38 35 33 33 33 33 33 31 31 32 31 31 31 30 28 25 23 22 22 22 23 23 22 21 21 22 22 23 23 23 24 25 24
30 28 24 29 34 34 32 31 31 32 33 28 24 24 24 22 24 25 25 25 24 24 21 18 20 22 21 22 22 19 22 28 34 38 43 45 47 50 51 51 51 52 53 54 55 56 58 58 57 55 53 49 44 40 37 34 32 32 32 31 31 30 31 31 31 31 31 29 28 26 24 23 23 23 23 23 22 22 23 23 23 24 24 24 24 24
30 30 26 27 32 34 34 33 32 33 35 31 28 29 27 22 21 21 20 21 20 20 20 18 19 20 18 19 19 19 21 25 31 36 40 44 46 48 49 49 48 50 52 53 52 54 56 57 57 56 53 49 46 44 40 36 33 31 31 31 30 30 30 31 31 30 30 30 29 28 27 25 24 24 24 24 24 23 24 24 24 25 25 25 24 24
32 30 28 30 32 33 36 37 34 34 36 35 33 31 27 24 24 23 22 22 22 22 22 18 16 16 14 14 15 17 20 24 29 34 38 42 45 46 47 47 47 48 50 52 51 52 54 55 55 55 53 50 47 45 42 38 35 33 32 31 31 31 31 31 31 30 30 30 29 29 28 28 27 26 25 24 24 24 24 24 25 25 26 25 25 23
34 30 28 31 34 34 36 37 35 34 35 38 36 30 27 29 31 29 28 28 25 26 27 20 14 13 14 14 14 15 18 21 28 34 37 41 44 45 45 46 46 47 48 50 51 50 51 52 53 53 54 50 47 45 42 40 37 36 35 33 32 31 30 29 30 30 29 28 29 29 28 28 28 26 25 24 24 25 24 24 24 25 25 25 24 23
34 34 31 31 36 36 35 37 38 36 35 38 38 34 32 34 34 33 34 33 29 30 30 24 16 13 13 13 13 15 16 19 25 33 37 39 42 43 43 44 45 46 48 49 50 49 48 49 50 51 53 52 49 46 43 41 40 39 37 36 35 32 29 28 29 30 28 27 27 27 27 27 27 27 26 25 24 24 24 24 23 23 23 23 23 22
34 40 36 33 36 38 37 38 37 37 37 37 40 42 40 36 34 32 32 31 31 32 31 25 18 14 12 12 12 14 16 17 23 30 36 38 40 41 41 42 43 45 46 47 47 48 47 46 47 49 51 53 51 47 44 42 41 41 40 39 38 35 32 29 28 28 28 26 26 26 26 26 26 26 26 25 23 23 22 22 22 22 22 22 22 21
37 44 43 36 36 39 40 40 36 37 40 40 43 49 47 41 37 34 32 29 28 30 30 26 20 15 11 11 10 12 15 16 20 27 33 36 37 39 39 40 42 43 44 45 45 45 45 45 45 47 49 52 52 49 46 44 42 42 42 41 39 37 34 30 28 27 26 26 25 25 25 25 25 26 26 26 24 23 22 21 21 21 21 21 21 20
41 46 46 42 40 40 40 41 38 38 42 43 46 49 49 45 41 39 37 32 28 29 30 28 23 17 12 11 9 9 11 14 17 23 30 33 35 37 38 38 39 41 42 43 43 42 43 44 45 46 48 50 51 49 46 45 43 43 42 41 39 37 34 31 28 26 25 26 25 24 24 25 25 25 26 26 25 23 22 20 19 19 19 19 20 20
45 48 49 46 42 40 39 42 42 41 43 45 46 47 48 47 46 43 41 36 31 31 30 29 28 20 13 13 12 9 11 13 15 20 25 30 32 33 35 36 37 38 38 40 40 41 42 43 44 45 45 47 49 48 46 45 44 42 41 40 38 36 32 30 29 27 25 24 24 24 24 24 24 25 25 25 25 24 22 20 19 19 18 18 19 19
50 52 52 47 42 39 39 44 45 45 46 46 45 47 48 49 49 45 42 40 36 34 32 33 33 23 15 15 14 11 12 13 14 18 22 26 27 28 30 34 35 36 36 38 40 41 41 42 44 45 43 44 46 47 45 44 43 43 42 41 38 35 34 32 31 28 25 24 24 24 24 24 24 24 24 25 24 24 23 22 20 19 18 18 18 17
58 58 55 48 43 43 46 49 49 48 49 47 45 46 48 50 51 47 44 42 39 36 34 35 34 25 18 18 15 11 12 13 15 16 19 22 24 26 30 34 35 35 36 38 40 40 41 42 43 44 42 42 44 45 45 44 43 43 42 41 39 37 36 35 33 30 27 25 25 24 24 23 23 23 23 24 24 23 23 23 22 21 19 18 18 16
62 61 59 53 47 48 52 55 53 51 51 48 45 45 47 50 50 50 49 45 41 37 34 35 34 26 18 18 16 12 11 12 14 17 18 21 24 26 29 33 34 35 37 38 39 39 40 40 40 41 42 41 43 44 44 43 43 43 43 41 40 40 38 36 34 32 30 28 26 25 24 23 23 22 23 23 23 23 23 23 22 21 20 20 18 16
62 62 59 56 52 51 55 58 56 54 52 49 45 43 44 48 49 51 52 49 45 41 34 34 33 24 17 17 16 13 11 12 14 15 17 20 22 24 26 28 30 33 36 37 38 37 37 37 37 37 40 41 42 43 43 43 43 43 43 43 42 42 40 38 34 32 31 30 28 26 24 23 22 21 22 22 23 23 22 22 22 21 21 20 19 17
61 63 57 53 50 48 52 56 56 56 55 51 47 43 42 45 47 50 52 50 48 44 37 34 32 24 18 18 16 14 14 14 14 14 16 19 20 21 23 25 27 30 32 33 35 34 34 35 36 36 39 42 43 44 43 43 44 44 43 43 44 43 42 39 35 32 30 30 29 26 24 23 23 22 22 22 22 22 22 22 22 22 21 21 19 18
56 59 54 51 48 43 46 51 53 57 58 52 48 45 42 42 44 47 50 50 49 48 44 38 34 28 21 18 17 16 15 15 14 13 15 16 18 19 21 23 26 28 29 29 29 30 31 32 33 36 40 43 44 44 44 43 44 44 43 43 44 44 43 41 37 33 30 29 27 26 24 24 24 24 23 22 22 22 22 22 22 22 22 21 20 18
49 52 49 51 50 43 42 48 52 56 59 55 49 47 46 45 41 42 46 48 50 51 47 40 36 30 23 21 22 20 20 21 18 15 16 19 21 23 24 24 24 25 26 25 24 25 26 28 30 33 39 43 44 44 44 42 43 44 43 42 42 43 43 42 39 36 33 30 26 25 25 24 23 24 24 23 23 22 22 22 22 22 21 21 20 19
47 50 49 53 56 48 41 45 51 56 60 58 50 47 48 46 42 43 47 52 55 53 48 43 38 31 25 27 29 27 27 28 24 21 24 27 29 30 29 27 23 20 20 20 20 20 21 24 28 30 35 40 42 42 42 42 41 42 43 42 42 42 42 42 40 37 36 33 28 26 26 25 23 23 24 24 24 23 23 22 22 21 21 21 20 20
47 49 48 51 57 52 45 47 52 56 60 60 53 47 47 47 46 48 53 60 65 60 52 45 39 35 33 33 32 30 29 31 29 29 30 32 33 34 33 30 25 20 17 16 15 15 16 20 25 28 31 34 37 39 41 41 40 42 43 43 42 42 42 41 40 39 38 35 31 27 27 27 26 25 24 24 24 23 23 22 22 21 21 21 20 20
50 49 48 51 54 52 50 52 56 59 62 61 54 45 43 46 48 49 55 66 72 67 57 47 41 40 39 35 33 32 31 31 32 32 33 33 34 34 34 33 29 23 19 16 14 13 14 18 21 24 26 29 32 35 39 40 39 40 42 43 43 42 41 39 39 38 38 36 32 29 28 29 28 26 25 23 23 23 23 22 21 20 19 20 20 20
53 49 48 52 54 54 53 53 58 64 63 58 53 47 45 46 48 51 59 68 71 66 58 50 44 40 38 37 36 35 32 32 34 34 33 34 33 33 33 34 32 26 21 18 15 13 13 15 18 21 23 26 30 34 39 41 39 39 43 45 44 43 41 39 38 37 37 34 30 29 29 30 29 27 25 23 23 23 22 21 20 19 19 20 20 20
56 53 51 52 55 57 58 56 61 66 61 56 57 56 51 47 48 53 61 66 67 64 59 53 46 41 38 37 37 35 34 34 35 34 33 33 33 33 33 33 33 29 22 18 17 16 14 12 15 19 22 27 33 37 41 41 38 39 43 45 44 43 41 38 37 36 34 30 28 28 29 29 28 26 24 23 22 22 21 20 19 19 19 19 20 20
57 56 54 54 56 61 62 61 60 61 59 58 61 62 59 54 55 60 65 67 66 63 59 55 48 41 38 36 35 35 35 34 33 34 35 34 35 35 34 34 35 32 26 21 19 18 15 12 13 17 21 28 34 37 38 38 37 38 42 44 44 43 41 39 37 34 30 26 26 26 27 27 26 25 24 23 23 21 20 19 19 19 20 20 20 20
52 55 56 57 61 64 64 60 54 56 63 67 68 68 66 61 61 64 66 69 66 61 59 57 50 44 40 36 35 36 36 36 36 37 38 37 37 38 38 39 39 34 27 23 20 17 15 13 14 18 23 27 31 34 36 36 37 39 42 45 43 42 41 38 34 30 26 25 25 25 25 25 24 23 23 22 21 19 19 19 19 19 19 19 19 20
47 53 58 60 64 68 68 64 56 57 69 75 70 67 65 61 61 61 65 70 69 64 63 59 54 52 46 39 38 39 39 40 40 40 41 41 41 42 42 43 40 32 24 21 18 15 14 14 16 19 23 27 30 33 36 37 38 40 43 44 43 40 38 34 30 28 26 24 24 24 24 24 23 22 22 21 20 20 19 19 19 19 19 20 21 22
50 55 59 65 71 73 73 69 60 56 67 74 69 65 65 65 65 65 70 74 71 68 67 63 60 60 53 44 42 42 42 44 42 41 43 44 44 44 45 44 39 30 23 20 18 15 14 15 17 19 21 25 29 33 35 36 39 43 44 43 42 40 35 31 30 28 26 26 27 26 25 25 25 25 25 25 25 25 25 26 25 26 27 27 28 29
61 64 65 70 76 76 73 69 60 55 63 72 71 69 68 70 72 75 76 74 69 70 71 66 65 66 59 50 46 45 48 52 49 46 45 45 45 45 45 45 41 33 27 23 19 17 17 17 18 20 22 25 29 32 35 39 42 44 44 43 42 39 34 31 30 29 28 30 31 30 28 28 29 30 31 31 32 33 33 34 34 35 36 37 39 40
68 69 71 73 75 75 73 70 63 59 64 72 74 73 73 76 80 80 74 67 66 69 71 68 67 68 64 57 53 52 53 54 52 50 48 44 45 46 46 47 46 40 33 27 23 20 19 19 21 24 25 27 29 33 37 41 44 45 44 44 43 39 34 33 33 32 31 31 31 31 32 32 33 34 34 35 36 37 37 38 39 40 42 44 45 46
69 69 73 74 74 73 73 71 68 65 69 74 76 75 76 81 83 76 66 65 69 70 70 69 69 69 66 61 59 60 58 53 51 53 52 47 45 47 47 47 48 45 37 31 27 24 21 22 24 26 28 29 30 33 36 40 44 45 45 44 42 39 37 36 35 33 31 30 30 32 34 35 35 36 36 37 37 38 40 40 42 44 46 46 47 47
72 75 78 79 81 80 74 71 73 74 75 76 77 76 77 80 79 71 65 68 71 70 70 70 68 67 66 64 64 66 65 60 56 57 58 52 47 47 48 47 48 47 41 35 31 28 25 25 26 28 30 31 31 32 35 39 43 44 44 43 42 40 39 37 35 34 33 31 32 34 34 35 36 36 37 38 38 39 40 42 44 45 45 46 46 46
88 90 92 92 94 92 85 81 82 82 79 77 79 80 81 81 79 73 70 72 70 69 72 72 67 65 66 64 65 68 67 64 62 61 63 58 51 48 50 49 50 49 45 40 36 33 30 29 28 29 31 32 32 33 34 38 43 44 42 42 43 42 41 39 38 37 36 35 36 36 37 37 37 39 40 40 40 40 41 42 44 44 44 44 44 44
97 97 99 99 97 97 95 92 87 82 79 79 82 82 82 82 81 77 75 74 70 68 73 74 68 64 65 65 66 66 65 65 66 66 68 66 59 53 51 51 51 50 47 44 40 37 35 35 33 33 34 35 34 35 35 37 40 42 41 42 44 45 43 42 42 42 42 41 41 41 42 42 42 43 43 42 41 41 42 43 44 45 46 46 45 45
97 95 97 98 97 96 94 91 86 81 80 82 83 83 82 82 81 80 79 75 68 66 71 73 70 65 64 66 66 65 64 65 67 68 70 70 67 60 55 53 52 51 48 45 43 42 41 40 40 40 41 40 38 39 39 38 37 39 41 44 47 47 46 45 45 46 46 46 45 46 47 47 46 45 45 44 44 44 45 46 46 46 46 47 48 48
97 95 96 99 98 96 94 89 85 83 83 84 85 85 83 83 82 81 79 73 65 65 69 73 72 68 65 66 67 65 63 63 66 69 70 70 69 66 61 56 53 51 49 45 44 45 45 46 48 49 48 45 42 41 42 42 41 42 45 48 50 49 48 48 47 45 44 44 44 45 46 46 45 46 46 46 46 46 46 46 46 46 46 46 47 48
98 95 97 98 97 95 92 89 85 83 84 86 88 86 82 82 82 81 77 69 66 69 72 72 73 70 67 66 67 65 63 63 64 67 70 71 70 68 65 60 55 52 49 46 45 46 46 47 51 53 53 52 48 46 47 47 46 47 50 52 52 50 50 51 49 47 45 45 45 45 45 44 44 45 45 45 45 45 45 45 45 45 45 46 46 48
97 97 97 97 95 92 90 88 85 83 82 84 85 84 80 81 83 82 76 70 69 73 74 73 74 72 69 68 67 65 65 63 63 65 69 70 70 68 66 64 60 55 52 49 48 48 47 49 52 54 56 57 55 53 53 53 52 53 55 55 54 52 51 52 51 49 48 48 47 45 44 43 43 43 44 45 44 44 43 43 43 43 44 45 46 46
97 98 98 97 95 93 92 90 86 84 82 81 82 83 82 83 84 81 76 71 71 73 74 74 75 72 69 69 68 65 64 64 62 64 67 70 70 69 68 67 65 61 58 54 53 52 50 51 53 56 57 58 58 57 57 57 57 58 59 58 57 54 54 53 52 51 50 49 48 45 43 43 42 42 42 43 43 43 43 41 41 42 43 44 44 44
98 99 98 99 98 94 91 90 88 86 83 81 79 80 83 85 87 85 79 74 74 77 76 76 76 72 67 68 68 66 64 63 61 62 66 70 71 69 69 69 68 66 64 61 59 58 57 56 56 57 57 59 59 57 57 57 57 57 57 58 56 56 56 55 53 52 50 48 47 46 45 44 43 42 42 42 42 43 43 42 42 41 41 42 42 42